#datetime,building,power
2023-09-11T00:00:00,axn,25.12
2023-09-11T00:01:00,axn,24.91
2023-09-11T00:02:00,axn,24.88
2023-09-11T00:03:00,axn,24.67
2023-09-11T00:04:00,axn,25.34
2023-09-11T00:05:00,axn,34.99
2023-09-11T00:06:00,axn,34.83
2023-09-11T00:07:00,axn,34.80
2023-09-11T00:08:00,axn,35.23
2023-09-11T00:09:00,axn,35.00
2023-09-11T00:10:00,axn,24.54
2023-09-11T00:11:00,axn,24.45
2023-09-11T00:12:00,axn,24.45
2023-09-11T00:13:00,axn,24.24
2023-09-11T00:14:00,axn,24.35
2023-09-11T00:15:00,axn,24.63
2023-09-11T00:16:00,axn,24.27
2023-09-11T00:17:00,axn,24.93
2023-09-11T00:18:00,axn,24.59
2023-09-11T00:19:00,axn,24.32
2023-09-11T00:20:00,axn,24.36
2023-09-11T00:21:00,axn,24.37
2023-09-11T00:22:00,axn,24.57
2023-09-11T00:23:00,axn,24.60
2023-09-11T00:24:00,axn,24.67
2023-09-11T00:25:00,axn,24.79
2023-09-11T00:26:00,axn,24.74
2023-09-11T00:27:00,axn,24.86
2023-09-11T00:28:00,axn,24.85
2023-09-11T00:29:00,axn,24.61
2023-09-11T00:30:00,axn,24.86
2023-09-11T00:31:00,axn,24.82
2023-09-11T00:32:00,axn,24.83
2023-09-11T00:33:00,axn,24.91
2023-09-11T00:34:00,axn,24.74
2023-09-11T00:35:00,axn,24.45
2023-09-11T00:36:00,axn,25.11
2023-09-11T00:37:00,axn,24.50
2023-09-11T00:38:00,axn,24.52
2023-09-11T00:39:00,axn,24.54
2023-09-11T00:40:00,axn,24.49
2023-09-11T00:41:00,axn,24.60
2023-09-11T00:42:00,axn,24.64
2023-09-11T00:43:00,axn,24.84
2023-09-11T00:44:00,axn,24.51
2023-09-11T00:45:00,axn,24.54
2023-09-11T00:46:00,axn,24.64
2023-09-11T00:47:00,axn,24.75
2023-09-11T00:48:00,axn,24.83
2023-09-11T00:49:00,axn,25.18
2023-09-11T00:50:00,axn,25.17
2023-09-11T00:51:00,axn,24.64
2023-09-11T00:52:00,axn,24.62
2023-09-11T00:53:00,axn,24.73
2023-09-11T00:54:00,axn,24.99
2023-09-11T00:55:00,axn,24.94
2023-09-11T00:56:00,axn,24.93
2023-09-11T00:57:00,axn,24.98
2023-09-11T00:58:00,axn,24.73
2023-09-11T00:59:00,axn,25.00
2023-09-11T01:00:00,axn,27.40
2023-09-11T01:01:00,axn,27.79
2023-09-11T01:02:00,axn,27.74
2023-09-11T01:03:00,axn,27.66
2023-09-11T01:04:00,axn,42.72
2023-09-11T01:05:00,axn,42.19
2023-09-11T01:06:00,axn,42.05
2023-09-11T01:07:00,axn,42.20
2023-09-11T01:08:00,axn,41.98
2023-09-11T01:09:00,axn,41.81
2023-09-11T01:10:00,axn,41.83
2023-09-11T01:11:00,axn,27.83
2023-09-11T01:12:00,axn,28.20
2023-09-11T01:13:00,axn,28.46
2023-09-11T01:14:00,axn,28.12
2023-09-11T01:15:00,axn,28.31
2023-09-11T01:16:00,axn,28.26
2023-09-11T01:17:00,axn,27.95
2023-09-11T01:18:00,axn,28.23
2023-09-11T01:19:00,axn,28.12
2023-09-11T01:20:00,axn,28.01
2023-09-11T01:21:00,axn,28.12
2023-09-11T01:22:00,axn,28.15
2023-09-11T01:23:00,axn,28.55
2023-09-11T01:24:00,axn,28.40
2023-09-11T01:25:00,axn,28.30
2023-09-11T01:26:00,axn,27.50
2023-09-11T01:27:00,axn,27.59
2023-09-11T01:28:00,axn,27.62
2023-09-11T01:29:00,axn,27.59
2023-09-11T01:30:00,axn,27.72
2023-09-11T01:31:00,axn,27.90
2023-09-11T01:32:00,axn,27.81
2023-09-11T01:33:00,axn,30.49
2023-09-11T01:34:00,axn,27.50
2023-09-11T01:35:00,axn,27.63
2023-09-11T01:36:00,axn,27.61
2023-09-11T01:37:00,axn,27.75
2023-09-11T01:38:00,axn,28.04
2023-09-11T01:39:00,axn,27.79
2023-09-11T01:40:00,axn,27.84
2023-09-11T01:41:00,axn,27.70
2023-09-11T01:42:00,axn,27.79
2023-09-11T01:43:00,axn,28.09
2023-09-11T01:44:00,axn,27.83
2023-09-11T01:45:00,axn,28.00
2023-09-11T01:46:00,axn,27.94
2023-09-11T01:47:00,axn,27.96
2023-09-11T01:48:00,axn,27.99
2023-09-11T01:49:00,axn,28.00
2023-09-11T01:50:00,axn,27.87
2023-09-11T01:51:00,axn,27.91
2023-09-11T01:52:00,axn,27.87
2023-09-11T01:53:00,axn,27.76
2023-09-11T01:54:00,axn,27.89
2023-09-11T01:55:00,axn,27.93
2023-09-11T01:56:00,axn,27.78
2023-09-11T01:57:00,axn,27.73
2023-09-11T01:58:00,axn,27.93
2023-09-11T01:59:00,axn,27.42
2023-09-11T02:00:00,axn,27.36
2023-09-11T02:01:00,axn,27.64
2023-09-11T02:02:00,axn,27.68
2023-09-11T02:03:00,axn,27.86
2023-09-11T02:04:00,axn,27.75
2023-09-11T02:05:00,axn,28.07
2023-09-11T02:06:00,axn,28.04
2023-09-11T02:07:00,axn,27.55
2023-09-11T02:08:00,axn,27.71
2023-09-11T02:09:00,axn,27.85
2023-09-11T02:10:00,axn,27.55
2023-09-11T02:11:00,axn,27.60
2023-09-11T02:12:00,axn,27.50
2023-09-11T02:13:00,axn,27.52
2023-09-11T02:14:00,axn,27.88
2023-09-11T02:15:00,axn,27.85
2023-09-11T02:16:00,axn,27.46
2023-09-11T02:17:00,axn,27.56
2023-09-11T02:18:00,axn,27.38
2023-09-11T02:19:00,axn,27.33
2023-09-11T02:20:00,axn,27.61
2023-09-11T02:21:00,axn,28.05
2023-09-11T02:22:00,axn,27.74
2023-09-11T02:23:00,axn,27.77
2023-09-11T02:24:00,axn,27.85
2023-09-11T02:25:00,axn,27.79
2023-09-11T02:26:00,axn,27.78
2023-09-11T02:27:00,axn,27.72
2023-09-11T02:28:00,axn,27.84
2023-09-11T02:29:00,axn,27.93
2023-09-11T02:30:00,axn,27.70
2023-09-11T02:31:00,axn,27.92
2023-09-11T02:32:00,axn,27.60
2023-09-11T02:33:00,axn,27.71
2023-09-11T02:34:00,axn,27.67
2023-09-11T02:35:00,axn,27.66
2023-09-11T02:36:00,axn,28.00
2023-09-11T02:37:00,axn,27.53
2023-09-11T02:38:00,axn,27.78
2023-09-11T02:39:00,axn,27.82
2023-09-11T02:40:00,axn,30.35
2023-09-11T02:41:00,axn,30.33
2023-09-11T02:42:00,axn,30.97
2023-09-11T02:43:00,axn,27.14
2023-09-11T02:44:00,axn,27.23
2023-09-11T02:45:00,axn,27.21
2023-09-11T02:46:00,axn,27.17
2023-09-11T02:47:00,axn,26.88
2023-09-11T02:48:00,axn,26.98
2023-09-11T02:49:00,axn,27.26
2023-09-11T02:50:00,axn,26.68
2023-09-11T02:51:00,axn,24.66
2023-09-11T02:52:00,axn,24.83
2023-09-11T02:53:00,axn,24.85
2023-09-11T02:54:00,axn,25.30
2023-09-11T02:55:00,axn,25.22
2023-09-11T02:56:00,axn,25.25
2023-09-11T02:57:00,axn,25.44
2023-09-11T02:58:00,axn,25.23
2023-09-11T02:59:00,axn,25.21
2023-09-11T03:00:00,axn,25.97
2023-09-11T03:01:00,axn,25.22
2023-09-11T03:02:00,axn,25.22
2023-09-11T03:03:00,axn,25.13
2023-09-11T03:04:00,axn,25.25
2023-09-11T03:05:00,axn,25.39
2023-09-11T03:06:00,axn,25.63
2023-09-11T03:07:00,axn,24.98
2023-09-11T03:08:00,axn,25.04
2023-09-11T03:09:00,axn,25.30
2023-09-11T03:10:00,axn,25.37
2023-09-11T03:11:00,axn,25.32
2023-09-11T03:12:00,axn,25.62
2023-09-11T03:13:00,axn,25.31
2023-09-11T03:14:00,axn,25.40
2023-09-11T03:15:00,axn,25.42
2023-09-11T03:16:00,axn,25.45
2023-09-11T03:17:00,axn,25.16
2023-09-11T03:18:00,axn,25.21
2023-09-11T03:19:00,axn,25.05
2023-09-11T03:20:00,axn,25.58
2023-09-11T03:21:00,axn,25.90
2023-09-11T03:22:00,axn,25.24
2023-09-11T03:23:00,axn,25.16
2023-09-11T03:24:00,axn,25.54
2023-09-11T03:25:00,axn,25.10
2023-09-11T03:26:00,axn,25.13
2023-09-11T03:27:00,axn,25.14
2023-09-11T03:28:00,axn,25.35
2023-09-11T03:29:00,axn,25.01
2023-09-11T03:30:00,axn,25.25
2023-09-11T03:31:00,axn,25.16
2023-09-11T03:32:00,axn,25.26
2023-09-11T03:33:00,axn,25.23
2023-09-11T03:34:00,axn,25.11
2023-09-11T03:35:00,axn,25.17
2023-09-11T03:36:00,axn,25.23
2023-09-11T03:37:00,axn,25.15
2023-09-11T03:38:00,axn,25.11
2023-09-11T03:39:00,axn,24.99
2023-09-11T03:40:00,axn,25.16
2023-09-11T03:41:00,axn,25.26
2023-09-11T03:42:00,axn,25.32
2023-09-11T03:43:00,axn,25.20
2023-09-11T03:44:00,axn,25.00
2023-09-11T03:45:00,axn,25.17
2023-09-11T03:46:00,axn,25.04
2023-09-11T03:47:00,axn,24.98
2023-09-11T03:48:00,axn,24.84
2023-09-11T03:49:00,axn,24.75
2023-09-11T03:50:00,axn,24.70
2023-09-11T03:51:00,axn,25.37
2023-09-11T03:52:00,axn,24.72
2023-09-11T03:53:00,axn,24.67
2023-09-11T03:54:00,axn,24.65
2023-09-11T03:55:00,axn,24.79
2023-09-11T03:56:00,axn,24.62
2023-09-11T03:57:00,axn,24.69
2023-09-11T03:58:00,axn,24.81
2023-09-11T03:59:00,axn,24.68
2023-09-11T04:00:00,axn,24.85
2023-09-11T04:01:00,axn,24.80
2023-09-11T04:02:00,axn,25.34
2023-09-11T04:03:00,axn,24.61
2023-09-11T04:04:00,axn,24.67
2023-09-11T04:05:00,axn,24.39
2023-09-11T04:06:00,axn,24.75
2023-09-11T04:07:00,axn,24.44
2023-09-11T04:08:00,axn,24.85
2023-09-11T04:09:00,axn,25.01
2023-09-11T04:10:00,axn,24.49
2023-09-11T04:11:00,axn,24.44
2023-09-11T04:12:00,axn,24.48
2023-09-11T04:13:00,axn,24.45
2023-09-11T04:14:00,axn,24.56
2023-09-11T04:15:00,axn,24.62
2023-09-11T04:16:00,axn,24.62
2023-09-11T04:17:00,axn,24.80
2023-09-11T04:18:00,axn,24.59
2023-09-11T04:19:00,axn,24.64
2023-09-11T04:20:00,axn,30.56
2023-09-11T04:21:00,axn,30.77
2023-09-11T04:22:00,axn,30.56
2023-09-11T04:23:00,axn,24.44
2023-09-11T04:24:00,axn,24.77
2023-09-11T04:25:00,axn,24.37
2023-09-11T04:26:00,axn,24.32
2023-09-11T04:27:00,axn,24.47
2023-09-11T04:28:00,axn,24.89
2023-09-11T04:29:00,axn,24.67
2023-09-11T04:30:00,axn,24.70
2023-09-11T04:31:00,axn,24.86
2023-09-11T04:32:00,axn,25.13
2023-09-11T04:33:00,axn,25.10
2023-09-11T04:34:00,axn,25.03
2023-09-11T04:35:00,axn,24.98
2023-09-11T04:36:00,axn,25.75
2023-09-11T04:37:00,axn,25.70
2023-09-11T04:38:00,axn,26.00
2023-09-11T04:39:00,axn,26.07
2023-09-11T04:40:00,axn,25.97
2023-09-11T04:41:00,axn,43.31
2023-09-11T04:42:00,axn,26.70
2023-09-11T04:43:00,axn,26.45
2023-09-11T04:44:00,axn,26.42
2023-09-11T04:45:00,axn,26.45
2023-09-11T04:46:00,axn,26.39
2023-09-11T04:47:00,axn,27.27
2023-09-11T04:48:00,axn,26.20
2023-09-11T04:49:00,axn,26.17
2023-09-11T04:50:00,axn,26.57
2023-09-11T04:51:00,axn,26.09
2023-09-11T04:52:00,axn,26.19
2023-09-11T04:53:00,axn,26.70
2023-09-11T04:54:00,axn,26.16
2023-09-11T04:55:00,axn,25.99
2023-09-11T04:56:00,axn,26.26
2023-09-11T04:57:00,axn,26.11
2023-09-11T04:58:00,axn,26.32
2023-09-11T04:59:00,axn,26.02
2023-09-11T05:00:00,axn,25.93
2023-09-11T05:01:00,axn,24.08
2023-09-11T05:02:00,axn,24.18
2023-09-11T05:03:00,axn,24.03
2023-09-11T05:04:00,axn,24.05
2023-09-11T05:05:00,axn,23.94
2023-09-11T05:06:00,axn,24.01
2023-09-11T05:07:00,axn,24.00
2023-09-11T05:08:00,axn,24.69
2023-09-11T05:09:00,axn,24.28
2023-09-11T05:10:00,axn,24.75
2023-09-11T05:11:00,axn,24.56
2023-09-11T05:12:00,axn,24.68
2023-09-11T05:13:00,axn,24.10
2023-09-11T05:14:00,axn,26.94
2023-09-11T05:15:00,axn,26.17
2023-09-11T05:16:00,axn,24.03
2023-09-11T05:17:00,axn,24.13
2023-09-11T05:18:00,axn,24.08
2023-09-11T05:19:00,axn,23.96
2023-09-11T05:20:00,axn,24.22
2023-09-11T05:21:00,axn,24.12
2023-09-11T05:22:00,axn,24.17
2023-09-11T05:23:00,axn,24.10
2023-09-11T05:24:00,axn,24.15
2023-09-11T05:25:00,axn,24.24
2023-09-11T05:26:00,axn,24.39
2023-09-11T05:27:00,axn,24.23
2023-09-11T05:28:00,axn,24.19
2023-09-11T05:29:00,axn,24.45
2023-09-11T05:30:00,axn,28.97
2023-09-11T05:31:00,axn,31.40
2023-09-11T05:32:00,axn,25.96
2023-09-11T05:33:00,axn,26.10
2023-09-11T05:34:00,axn,26.27
2023-09-11T05:35:00,axn,25.84
2023-09-11T05:36:00,axn,25.94
2023-09-11T05:37:00,axn,25.79
2023-09-11T05:38:00,axn,26.01
2023-09-11T05:39:00,axn,25.87
2023-09-11T05:40:00,axn,25.90
2023-09-11T05:41:00,axn,26.00
2023-09-11T05:42:00,axn,25.91
2023-09-11T05:43:00,axn,25.84
2023-09-11T05:44:00,axn,25.82
2023-09-11T05:45:00,axn,25.92
2023-09-11T05:46:00,axn,26.28
2023-09-11T05:47:00,axn,25.72
2023-09-11T05:48:00,axn,25.77
2023-09-11T05:49:00,axn,25.48
2023-09-11T05:50:00,axn,25.48
2023-09-11T05:51:00,axn,25.60
2023-09-11T05:52:00,axn,25.68
2023-09-11T05:53:00,axn,25.79
2023-09-11T05:54:00,axn,25.91
2023-09-11T05:55:00,axn,25.78
2023-09-11T05:56:00,axn,25.75
2023-09-11T05:57:00,axn,25.63
2023-09-11T05:58:00,axn,25.66
2023-09-11T05:59:00,axn,25.69
2023-09-11T06:00:00,axn,25.73
2023-09-11T06:01:00,axn,25.60
2023-09-11T06:02:00,axn,25.50
2023-09-11T06:03:00,axn,25.46
2023-09-11T06:04:00,axn,26.24
2023-09-11T06:05:00,axn,25.40
2023-09-11T06:06:00,axn,26.42
2023-09-11T06:07:00,axn,26.78
2023-09-11T06:08:00,axn,26.59
2023-09-11T06:09:00,axn,26.48
2023-09-11T06:10:00,axn,26.39
2023-09-11T06:11:00,axn,40.89
2023-09-11T06:12:00,axn,41.07
2023-09-11T06:13:00,axn,40.53
2023-09-11T06:14:00,axn,40.38
2023-09-11T06:15:00,axn,40.22
2023-09-11T06:16:00,axn,26.00
2023-09-11T06:17:00,axn,25.88
2023-09-11T06:18:00,axn,26.25
2023-09-11T06:19:00,axn,43.38
2023-09-11T06:20:00,axn,25.95
2023-09-11T06:21:00,axn,25.75
2023-09-11T06:22:00,axn,25.81
2023-09-11T06:23:00,axn,25.70
2023-09-11T06:24:00,axn,25.96
2023-09-11T06:25:00,axn,26.18
2023-09-11T06:26:00,axn,26.42
2023-09-11T06:27:00,axn,25.67
2023-09-11T06:28:00,axn,25.88
2023-09-11T06:29:00,axn,26.04
2023-09-11T06:30:00,axn,25.86
2023-09-11T06:31:00,axn,28.91
2023-09-11T06:32:00,axn,28.43
2023-09-11T06:33:00,axn,28.84
2023-09-11T06:34:00,axn,25.73
2023-09-11T06:35:00,axn,25.63
2023-09-11T06:36:00,axn,25.73
2023-09-11T06:37:00,axn,26.20
2023-09-11T06:38:00,axn,25.88
2023-09-11T06:39:00,axn,25.91
2023-09-11T06:40:00,axn,25.90
2023-09-11T06:41:00,axn,25.87
2023-09-11T06:42:00,axn,25.80
2023-09-11T06:43:00,axn,25.63
2023-09-11T06:44:00,axn,25.79
2023-09-11T06:45:00,axn,25.70
2023-09-11T06:46:00,axn,25.61
2023-09-11T06:47:00,axn,25.40
2023-09-11T06:48:00,axn,25.22
2023-09-11T06:49:00,axn,25.26
2023-09-11T06:50:00,axn,25.06
2023-09-11T06:51:00,axn,24.98
2023-09-11T06:52:00,axn,25.29
2023-09-11T06:53:00,axn,24.81
2023-09-11T06:54:00,axn,24.82
2023-09-11T06:55:00,axn,24.88
2023-09-11T06:56:00,axn,24.97
2023-09-11T06:57:00,axn,25.10
2023-09-11T06:58:00,axn,24.88
2023-09-11T06:59:00,axn,24.80
2023-09-11T07:00:00,axn,24.59
2023-09-11T07:01:00,axn,27.57
2023-09-11T07:02:00,axn,30.88
2023-09-11T07:03:00,axn,30.35
2023-09-11T07:04:00,axn,30.59
2023-09-11T07:05:00,axn,30.96
2023-09-11T07:06:00,axn,46.77
2023-09-11T07:07:00,axn,41.58
2023-09-11T07:08:00,axn,30.80
2023-09-11T07:09:00,axn,30.70
2023-09-11T07:10:00,axn,31.11
2023-09-11T07:11:00,axn,30.85
2023-09-11T07:12:00,axn,30.56
2023-09-11T07:13:00,axn,30.64
2023-09-11T07:14:00,axn,31.10
2023-09-11T07:15:00,axn,30.56
2023-09-11T07:16:00,axn,31.16
2023-09-11T07:17:00,axn,31.31
2023-09-11T07:18:00,axn,31.93
2023-09-11T07:19:00,axn,31.28
2023-09-11T07:20:00,axn,31.07
2023-09-11T07:21:00,axn,31.66
2023-09-11T07:22:00,axn,31.84
2023-09-11T07:23:00,axn,32.00
2023-09-11T07:24:00,axn,31.81
2023-09-11T07:25:00,axn,31.75
2023-09-11T07:26:00,axn,31.92
2023-09-11T07:27:00,axn,32.14
2023-09-11T07:28:00,axn,32.04
2023-09-11T07:29:00,axn,32.15
2023-09-11T07:30:00,axn,32.16
2023-09-11T07:31:00,axn,42.22
2023-09-11T07:32:00,axn,42.31
2023-09-11T07:33:00,axn,41.76
2023-09-11T07:34:00,axn,42.42
2023-09-11T07:35:00,axn,32.70
2023-09-11T07:36:00,axn,32.37
2023-09-11T07:37:00,axn,32.32
2023-09-11T07:38:00,axn,34.92
2023-09-11T07:39:00,axn,34.93
2023-09-11T07:40:00,axn,34.69
2023-09-11T07:41:00,axn,38.45
2023-09-11T07:42:00,axn,38.73
2023-09-11T07:43:00,axn,38.61
2023-09-11T07:44:00,axn,38.54
2023-09-11T07:45:00,axn,38.82
2023-09-11T07:46:00,axn,38.51
2023-09-11T07:47:00,axn,38.95
2023-09-11T07:48:00,axn,38.61
2023-09-11T07:49:00,axn,38.96
2023-09-11T07:50:00,axn,39.10
2023-09-11T07:51:00,axn,39.20
2023-09-11T07:52:00,axn,39.42
2023-09-11T07:53:00,axn,39.43
2023-09-11T07:54:00,axn,39.69
2023-09-11T07:55:00,axn,39.53
2023-09-11T07:56:00,axn,38.95
2023-09-11T07:57:00,axn,38.97
2023-09-11T07:58:00,axn,38.95
2023-09-11T07:59:00,axn,38.83
2023-09-11T08:00:00,axn,38.46
2023-09-11T08:01:00,axn,38.24
2023-09-11T08:02:00,axn,53.59
2023-09-11T08:03:00,axn,39.20
2023-09-11T08:04:00,axn,38.72
2023-09-11T08:05:00,axn,38.82
2023-09-11T08:06:00,axn,38.47
2023-09-11T08:07:00,axn,38.65
2023-09-11T08:08:00,axn,38.43
2023-09-11T08:09:00,axn,38.73
2023-09-11T08:10:00,axn,40.96
2023-09-11T08:11:00,axn,43.06
2023-09-11T08:12:00,axn,42.26
2023-09-11T08:13:00,axn,39.68
2023-09-11T08:14:00,axn,40.23
2023-09-11T08:15:00,axn,39.89
2023-09-11T08:16:00,axn,39.54
2023-09-11T08:17:00,axn,39.47
2023-09-11T08:18:00,axn,40.18
2023-09-11T08:19:00,axn,39.82
2023-09-11T08:20:00,axn,39.79
2023-09-11T08:21:00,axn,39.65
2023-09-11T08:22:00,axn,39.94
2023-09-11T08:23:00,axn,39.43
2023-09-11T08:24:00,axn,39.88
2023-09-11T08:25:00,axn,39.37
2023-09-11T08:26:00,axn,39.96
2023-09-11T08:27:00,axn,39.93
2023-09-11T08:28:00,axn,40.22
2023-09-11T08:29:00,axn,40.63
2023-09-11T08:30:00,axn,40.40
2023-09-11T08:31:00,axn,40.77
2023-09-11T08:32:00,axn,40.41
2023-09-11T08:33:00,axn,39.90
2023-09-11T08:34:00,axn,40.19
2023-09-11T08:35:00,axn,41.22
2023-09-11T08:36:00,axn,41.07
2023-09-11T08:37:00,axn,42.48
2023-09-11T08:38:00,axn,42.83
2023-09-11T08:39:00,axn,42.68
2023-09-11T08:40:00,axn,42.75
2023-09-11T08:41:00,axn,43.24
2023-09-11T08:42:00,axn,43.43
2023-09-11T08:43:00,axn,44.03
2023-09-11T08:44:00,axn,44.07
2023-09-11T08:45:00,axn,43.93
2023-09-11T08:46:00,axn,43.56
2023-09-11T08:47:00,axn,43.52
2023-09-11T08:48:00,axn,43.30
2023-09-11T08:49:00,axn,43.37
2023-09-11T08:50:00,axn,43.39
2023-09-11T08:51:00,axn,43.25
2023-09-11T08:52:00,axn,43.77
2023-09-11T08:53:00,axn,44.23
2023-09-11T08:54:00,axn,44.17
2023-09-11T08:55:00,axn,44.31
2023-09-11T08:56:00,axn,43.88
2023-09-11T08:57:00,axn,43.62
2023-09-11T08:58:00,axn,43.80
2023-09-11T08:59:00,axn,43.66
2023-09-11T09:00:00,axn,43.59
2023-09-11T09:01:00,axn,43.72
2023-09-11T09:02:00,axn,43.70
2023-09-11T09:03:00,axn,43.93
2023-09-11T09:04:00,axn,44.52
2023-09-11T09:05:00,axn,44.51
2023-09-11T09:06:00,axn,45.30
2023-09-11T09:07:00,axn,44.94
2023-09-11T09:08:00,axn,44.96
2023-09-11T09:09:00,axn,44.56
2023-09-11T09:10:00,axn,44.70
2023-09-11T09:11:00,axn,45.40
2023-09-11T09:12:00,axn,45.73
2023-09-11T09:13:00,axn,46.53
2023-09-11T09:14:00,axn,44.88
2023-09-11T09:15:00,axn,44.96
2023-09-11T09:16:00,axn,45.41
2023-09-11T09:17:00,axn,46.26
2023-09-11T09:18:00,axn,46.36
2023-09-11T09:19:00,axn,45.53
2023-09-11T09:20:00,axn,45.47
2023-09-11T09:21:00,axn,45.02
2023-09-11T09:22:00,axn,45.05
2023-09-11T09:23:00,axn,44.64
2023-09-11T09:24:00,axn,44.79
2023-09-11T09:25:00,axn,44.37
2023-09-11T09:26:00,axn,44.53
2023-09-11T09:27:00,axn,44.29
2023-09-11T09:28:00,axn,44.92
2023-09-11T09:29:00,axn,44.94
2023-09-11T09:30:00,axn,44.70
2023-09-11T09:31:00,axn,45.02
2023-09-11T09:32:00,axn,45.63
2023-09-11T09:33:00,axn,44.23
2023-09-11T09:34:00,axn,44.76
2023-09-11T09:35:00,axn,45.08
2023-09-11T09:36:00,axn,44.48
2023-09-11T09:37:00,axn,44.67
2023-09-11T09:38:00,axn,44.80
2023-09-11T09:39:00,axn,50.22
2023-09-11T09:40:00,axn,51.51
2023-09-11T09:41:00,axn,52.26
2023-09-11T09:42:00,axn,51.08
2023-09-11T09:43:00,axn,48.28
2023-09-11T09:44:00,axn,48.69
2023-09-11T09:45:00,axn,49.16
2023-09-11T09:46:00,axn,48.78
2023-09-11T09:47:00,axn,48.65
2023-09-11T09:48:00,axn,48.85
2023-09-11T09:49:00,axn,48.70
2023-09-11T09:50:00,axn,48.66
2023-09-11T09:51:00,axn,48.98
2023-09-11T09:52:00,axn,48.64
2023-09-11T09:53:00,axn,48.61
2023-09-11T09:54:00,axn,48.62
2023-09-11T09:55:00,axn,48.91
2023-09-11T09:56:00,axn,64.08
2023-09-11T09:57:00,axn,62.76
2023-09-11T09:58:00,axn,62.85
2023-09-11T09:59:00,axn,63.02
2023-09-11T10:00:00,axn,62.47
2023-09-11T10:01:00,axn,48.89
2023-09-11T10:02:00,axn,49.33
2023-09-11T10:03:00,axn,48.82
2023-09-11T10:04:00,axn,49.39
2023-09-11T10:05:00,axn,49.24
2023-09-11T10:06:00,axn,49.05
2023-09-11T10:07:00,axn,48.68
2023-09-11T10:08:00,axn,48.36
2023-09-11T10:09:00,axn,48.57
2023-09-11T10:10:00,axn,48.26
2023-09-11T10:11:00,axn,48.21
2023-09-11T10:12:00,axn,48.00
2023-09-11T10:13:00,axn,47.92
2023-09-11T10:14:00,axn,48.67
2023-09-11T10:15:00,axn,48.17
2023-09-11T10:16:00,axn,47.92
2023-09-11T10:17:00,axn,48.38
2023-09-11T10:18:00,axn,51.09
2023-09-11T10:19:00,axn,48.29
2023-09-11T10:20:00,axn,48.36
2023-09-11T10:21:00,axn,48.06
2023-09-11T10:22:00,axn,49.44
2023-09-11T10:23:00,axn,48.02
2023-09-11T10:24:00,axn,48.13
2023-09-11T10:25:00,axn,47.79
2023-09-11T10:26:00,axn,55.32
2023-09-11T10:27:00,axn,48.57
2023-09-11T10:28:00,axn,49.27
2023-09-11T10:29:00,axn,49.58
2023-09-11T10:30:00,axn,49.73
2023-09-11T10:31:00,axn,48.97
2023-09-11T10:32:00,axn,63.66
2023-09-11T10:33:00,axn,48.38
2023-09-11T10:34:00,axn,48.77
2023-09-11T10:35:00,axn,48.57
2023-09-11T10:36:00,axn,48.47
2023-09-11T10:37:00,axn,48.97
2023-09-11T10:38:00,axn,47.56
2023-09-11T10:39:00,axn,46.69
2023-09-11T10:40:00,axn,46.72
2023-09-11T10:41:00,axn,47.12
2023-09-11T10:42:00,axn,47.15
2023-09-11T10:43:00,axn,46.95
2023-09-11T10:44:00,axn,47.11
2023-09-11T10:45:00,axn,47.89
2023-09-11T10:46:00,axn,46.62
2023-09-11T10:47:00,axn,46.86
2023-09-11T10:48:00,axn,48.64
2023-09-11T10:49:00,axn,46.58
2023-09-11T10:50:00,axn,47.99
2023-09-11T10:51:00,axn,45.87
2023-09-11T10:52:00,axn,46.91
2023-09-11T10:53:00,axn,46.27
2023-09-11T10:54:00,axn,46.96
2023-09-11T10:55:00,axn,46.50
2023-09-11T10:56:00,axn,46.75
2023-09-11T10:57:00,axn,45.88
2023-09-11T10:58:00,axn,50.60
2023-09-11T10:59:00,axn,50.42
2023-09-11T11:00:00,axn,53.34
2023-09-11T11:01:00,axn,49.69
2023-09-11T11:02:00,axn,49.77
2023-09-11T11:03:00,axn,49.20
2023-09-11T11:04:00,axn,46.24
2023-09-11T11:05:00,axn,46.55
2023-09-11T11:06:00,axn,46.66
2023-09-11T11:07:00,axn,47.06
2023-09-11T11:08:00,axn,47.59
2023-09-11T11:09:00,axn,46.62
2023-09-11T11:10:00,axn,47.26
2023-09-11T11:11:00,axn,46.30
2023-09-11T11:12:00,axn,46.63
2023-09-11T11:13:00,axn,47.55
2023-09-11T11:14:00,axn,47.04
2023-09-11T11:15:00,axn,46.67
2023-09-11T11:16:00,axn,52.51
2023-09-11T11:17:00,axn,52.93
2023-09-11T11:18:00,axn,53.04
2023-09-11T11:19:00,axn,47.00
2023-09-11T11:20:00,axn,46.44
2023-09-11T11:21:00,axn,46.78
2023-09-11T11:22:00,axn,50.05
2023-09-11T11:23:00,axn,47.16
2023-09-11T11:24:00,axn,47.41
2023-09-11T11:25:00,axn,47.16
2023-09-11T11:26:00,axn,47.05
2023-09-11T11:27:00,axn,46.48
2023-09-11T11:28:00,axn,46.48
2023-09-11T11:29:00,axn,47.25
2023-09-11T11:30:00,axn,47.81
2023-09-11T11:31:00,axn,48.07
2023-09-11T11:32:00,axn,47.87
2023-09-11T11:33:00,axn,46.13
2023-09-11T11:34:00,axn,48.87
2023-09-11T11:35:00,axn,46.15
2023-09-11T11:36:00,axn,46.62
2023-09-11T11:37:00,axn,46.54
2023-09-11T11:38:00,axn,46.30
2023-09-11T11:39:00,axn,46.20
2023-09-11T11:40:00,axn,46.31
2023-09-11T11:41:00,axn,46.76
2023-09-11T11:42:00,axn,46.24
2023-09-11T11:43:00,axn,47.08
2023-09-11T11:44:00,axn,46.57
2023-09-11T11:45:00,axn,45.29
2023-09-11T11:46:00,axn,45.07
2023-09-11T11:47:00,axn,44.93
2023-09-11T11:48:00,axn,45.15
2023-09-11T11:49:00,axn,45.25
2023-09-11T11:50:00,axn,44.79
2023-09-11T11:51:00,axn,44.77
2023-09-11T11:52:00,axn,44.68
2023-09-11T11:53:00,axn,44.80
2023-09-11T11:54:00,axn,44.97
2023-09-11T11:55:00,axn,45.40
2023-09-11T11:56:00,axn,45.28
2023-09-11T11:57:00,axn,45.53
2023-09-11T11:58:00,axn,44.96
2023-09-11T11:59:00,axn,46.04
2023-09-11T12:00:00,axn,46.20
2023-09-11T12:01:00,axn,45.77
2023-09-11T12:02:00,axn,45.69
2023-09-11T12:03:00,axn,45.97
2023-09-11T12:04:00,axn,45.95
2023-09-11T12:05:00,axn,46.19
2023-09-11T12:06:00,axn,46.29
2023-09-11T12:07:00,axn,46.32
2023-09-11T12:08:00,axn,45.96
2023-09-11T12:09:00,axn,45.71
2023-09-11T12:10:00,axn,45.69
2023-09-11T12:11:00,axn,45.73
2023-09-11T12:12:00,axn,45.38
2023-09-11T12:13:00,axn,46.27
2023-09-11T12:14:00,axn,48.84
2023-09-11T12:15:00,axn,48.73
2023-09-11T12:16:00,axn,48.86
2023-09-11T12:17:00,axn,45.57
2023-09-11T12:18:00,axn,45.90
2023-09-11T12:19:00,axn,47.57
2023-09-11T12:20:00,axn,46.57
2023-09-11T12:21:00,axn,46.97
2023-09-11T12:22:00,axn,56.84
2023-09-11T12:23:00,axn,56.60
2023-09-11T12:24:00,axn,56.15
2023-09-11T12:25:00,axn,56.07
2023-09-11T12:26:00,axn,46.01
2023-09-11T12:27:00,axn,46.22
2023-09-11T12:28:00,axn,45.86
2023-09-11T12:29:00,axn,46.29
2023-09-11T12:30:00,axn,46.49
2023-09-11T12:31:00,axn,46.81
2023-09-11T12:32:00,axn,46.07
2023-09-11T12:33:00,axn,45.76
2023-09-11T12:34:00,axn,46.33
2023-09-11T12:35:00,axn,45.77
2023-09-11T12:36:00,axn,45.47
2023-09-11T12:37:00,axn,45.75
2023-09-11T12:38:00,axn,45.21
2023-09-11T12:39:00,axn,45.88
2023-09-11T12:40:00,axn,47.45
2023-09-11T12:41:00,axn,46.33
2023-09-11T12:42:00,axn,45.63
2023-09-11T12:43:00,axn,47.10
2023-09-11T12:44:00,axn,48.34
2023-09-11T12:45:00,axn,47.21
2023-09-11T12:46:00,axn,47.87
2023-09-11T12:47:00,axn,47.58
2023-09-11T12:48:00,axn,48.17
2023-09-11T12:49:00,axn,47.04
2023-09-11T12:50:00,axn,46.83
2023-09-11T12:51:00,axn,46.79
2023-09-11T12:52:00,axn,47.21
2023-09-11T12:53:00,axn,47.26
2023-09-11T12:54:00,axn,47.71
2023-09-11T12:55:00,axn,46.87
2023-09-11T12:56:00,axn,46.68
2023-09-11T12:57:00,axn,46.54
2023-09-11T12:58:00,axn,47.39
2023-09-11T12:59:00,axn,46.62
2023-09-11T13:00:00,axn,49.91
2023-09-11T13:01:00,axn,49.84
2023-09-11T13:02:00,axn,47.42
2023-09-11T13:03:00,axn,46.79
2023-09-11T13:04:00,axn,47.23
2023-09-11T13:05:00,axn,47.26
2023-09-11T13:06:00,axn,46.93
2023-09-11T13:07:00,axn,47.20
2023-09-11T13:08:00,axn,47.68
2023-09-11T13:09:00,axn,47.24
2023-09-11T13:10:00,axn,47.02
2023-09-11T13:11:00,axn,48.05
2023-09-11T13:12:00,axn,46.79
2023-09-11T13:13:00,axn,46.60
2023-09-11T13:14:00,axn,47.02
2023-09-11T13:15:00,axn,46.92
2023-09-11T13:16:00,axn,47.73
2023-09-11T13:17:00,axn,48.74
2023-09-11T13:18:00,axn,46.84